Вернуться в каталог

QIANFAN-232

АктивенСвязьPO
NORAD 69861·PAYLOAD·🇨🇳 China

Запущен Jul 5, 2026 с Wenchang Space Launch Site

Loading…

Ближайшие Пролёты (ближайшие 24 часа)

TLE

СвежийSource: Space-Track

Эпоха: Sep 14, 2026, 12:14 UTC

1 69861U 26155P   26257.51023875 -.01867513  00000-0 -31448+1 0  9995
2 69861  89.0072  54.2918 0027541  22.5496 337.6858 13.49981495  9938

Отслеживайте QIANFAN-232 в реальном времени с AllMySat

Download on the App Store